Weather History for KTEB - July, 2013

Change the Weather History Date:

Saturday, July 6, 2013

  Actual Average Record
Temperature  
Mean Temperature 84 °F -  
Max Temperature 93 °F 83 °F 102 °F (2010)
Min Temperature 77 °F 62 °F 57 °F (2000)
Cooling Degree Days 19    
Growing Degree Days 34 (Base 50)    
Moisture  
Dew Point 71 °F    
Average Humidity 64    
Maximum Humidity 84    
Minimum Humidity 48    
Precipitation  
Precipitation 0.00 in - - ()
Sea Level Pressure  
Sea Level Pressure 30.08 in    
Wind  
Wind Speed 7 mph (WSW)    
Max Wind Speed 15 mph    
Max Gust Speed 20 mph    
Visibility 10 miles    
Events      
Averages and records for this station are not official NWS values.
T = Trace of Precipitation, MM = Missing Value Source: NWS Daily Summary

Daily Weather History Graph

Daily Weather History Graph

Search for Another Location

Airport or City:

Trip Planner

Search our weather history database for the weather conditions in past years. The results will help you decide how hot, cold, wet, or windy it might be!

Date:

Astronomy

Jul. 06, 2013 Rise Set
Actual Time 5:31 AM EDT 8:30 PM EDT
Civil Twilight 4:58 AM EDT 9:03 PM EDT
Nautical Twilight 4:16 AM EDT 9:45 PM EDT
Astronomical Twilight 3:27 AM EDT 10:34 PM EDT
Moon 4:15 AM EDT (7/6) 7:09 PM EDT (7/6)
Length of Visible Light 16h 05m
Length of Day
14h 59m
Waning Crescent, 2% of the Moon is Illuminated
Jul 6
Waning Crescent
Jul 8
New
Jul 15
First Quarter
Jul 22
Full
Jul 29
Last Quarter

Hourly Weather History & Observations

Time (EDT) Temp. Heat Index Dew Point Humidity Pressure Visibility Wind Dir Wind Speed Gust Speed Precip Events Conditions
12:51 AM 81.0 °F 84.9 °F 71.1 °F 72% 30.12 in 10.0 mi SSW 6.9 mph - N/A   Clear
1:51 AM 80.1 °F 83.6 °F 71.1 °F 74% 30.12 in 10.0 mi SW 6.9 mph - N/A   Clear
2:51 AM 79.0 °F - 71.1 °F 77% 30.12 in 10.0 mi SW 5.8 mph - N/A   Clear
3:51 AM 78.1 °F - 71.1 °F 79% 30.11 in 10.0 mi SW 6.9 mph - N/A   Clear
4:51 AM 77.0 °F - 71.1 °F 82% 30.12 in 10.0 mi SW 4.6 mph - N/A   Clear
5:51 AM 77.0 °F - 72.0 °F 84% 30.12 in 10.0 mi SW 4.6 mph - N/A   Clear
6:51 AM 79.0 °F - 72.0 °F 79% 30.13 in 10.0 mi SSW 5.8 mph - N/A   Clear
7:51 AM 82.0 °F 87.4 °F 73.0 °F 74% 30.12 in 10.0 mi Variable 4.6 mph - N/A   Clear
8:51 AM 84.0 °F 90.2 °F 73.0 °F 69% 30.13 in 10.0 mi WNW 5.8 mph - N/A   Clear
9:23 AM 84.2 °F 89.6 °F 71.6 °F 66% 30.12 in 10.0 mi Variable 5.8 mph - N/A   Smoke
9:28 AM 84.2 °F 90.9 °F 73.4 °F 70% 30.12 in 10.0 mi Variable 4.6 mph - N/A   Clear
9:51 AM 86.0 °F 93.0 °F 73.0 °F 65% 30.11 in 10.0 mi WSW 6.9 mph - N/A   Clear
10:51 AM 88.0 °F 95.6 °F 73.0 °F 61% 30.10 in 10.0 mi WNW 8.1 mph - N/A   Partly Cloudy
11:51 AM 89.1 °F 95.0 °F 71.1 °F 55% 30.09 in 10.0 mi West 9.2 mph - N/A   Partly Cloudy
12:51 PM 90.0 °F 96.4 °F 71.1 °F 54% 30.09 in 10.0 mi WSW 10.4 mph - N/A   Partly Cloudy
1:51 PM 90.0 °F 96.4 °F 71.1 °F 54% 30.07 in 10.0 mi West 10.4 mph - N/A   Scattered Clouds
2:51 PM 91.9 °F 97.4 °F 70.0 °F 48% 30.06 in 10.0 mi West 15.0 mph 19.6 mph N/A   Partly Cloudy
3:51 PM 91.0 °F 95.6 °F 69.1 °F 48% 30.05 in 10.0 mi West 10.4 mph - N/A   Partly Cloudy
4:51 PM 91.9 °F 97.4 °F 70.0 °F 48% 30.04 in 10.0 mi West 11.5 mph - N/A   Scattered Clouds
5:51 PM 91.0 °F 96.6 °F 70.0 °F 50% 30.02 in 10.0 mi WSW 10.4 mph - N/A   Partly Cloudy
6:51 PM 90.0 °F 94.5 °F 69.1 °F 50% 30.01 in 10.0 mi West 11.5 mph - N/A   Partly Cloudy
7:51 PM 89.1 °F 93.7 °F 69.1 °F 52% 30.01 in 10.0 mi WSW 11.5 mph - N/A   Clear
8:51 PM 87.1 °F 92.0 °F 70.0 °F 57% 30.01 in 10.0 mi SW 6.9 mph - N/A   Clear
9:51 PM 86.0 °F 90.7 °F 70.0 °F 59% 30.03 in 10.0 mi WSW 6.9 mph - N/A   Clear
10:51 PM 84.9 °F 89.4 °F 70.0 °F 61% 30.04 in 10.0 mi WSW 4.6 mph - N/A   Clear
11:51 PM 84.9 °F 90.1 °F 71.1 °F 63% 30.05 in 10.0 mi WSW 9.2 mph - N/A   Clear